Retour au catalogue

STARLINK-37571

ActifCommunicationsSSO
NORAD 69043·PAYLOAD·🇺🇸 United States

Lancé May 6, 2026 depuis Vandenberg Space Force Base

Loading…

Prochains Passages (prochaines 24 heures)

TLE

FraisSource: CelesTrak SupGP

Époque: Sep 14, 2026, 21:22 UTC

1 69043C 26101U   26257.89076389  .00039432  00000+0  12250-2 0  2573
2 69043  97.2847 111.4473 0002302  96.7635  88.5449 15.33392341    18

Suivez STARLINK-37571 en temps réel avec AllMySat

Download on the App Store